Change the Weather History Date:

Friday, June 7, 2013

  Actual Average (KAVL) Record (KAVL)
Temperature  
Mean Temperature 74 °F 69 °F  
Max Temperature 82 °F 80 °F 94 °F (1933)
Min Temperature 65 °F 58 °F 44 °F (1976)
Degree Days  
Heating Degree Days 0 1  
Month to date heating degree days 7  
Since 1 June heating degree days 7  
Since 1 July heating degree days 4188  
Cooling Degree Days 8 5  
Month to date cooling degree days 29  
Year to date cooling degree days 87  
Since 1 June cooling degree days 29  
Growing Degree Days 24 (Base 50)    
Moisture  
Dew Point 67 °F    
Average Humidity 90    
Maximum Humidity 99    
Minimum Humidity 60    
Precipitation  
Precipitation 0.60 in 0.15 in 3.42 in (2013)
Month to date precipitation 1.02  
Year to date precipitation 19.27  
Snow  
Snow 0.00 in 0.00 in 0.00 in ()
Month to date snowfall 0.0  
Since 1 June snowfall 0.0  
Since 1 July snowfall 9.9  
Snow Depth -    
Sea Level Pressure  
Sea Level Pressure 29.76 in    
Wind  
Wind Speed 3 mph (West)    
Max Wind Speed 9 mph    
Max Gust Speed -    
Visibility 9 miles    
Events Rain    
T = Trace of Precipitation, MM = Missing Value Source: NWS Daily Summary

Daily Weather History Graph

Daily Weather History Graph

Search for Another Location

Airport or City:

Trip Planner

Search our weather history database for the weather conditions in past years. The results will help you decide how hot, cold, wet, or windy it might be!

Date:

Astronomy

Jun. 07, 2013 Rise Set
Actual Time 6:12 AM EDT 8:41 PM EDT
Civil Twilight 5:42 AM EDT 9:10 PM EDT
Nautical Twilight 5:06 AM EDT 9:47 PM EDT
Astronomical Twilight 4:25 AM EDT 10:28 PM EDT
Moon 5:31 AM EDT (6/7) 7:56 PM EDT (6/7)
Length of Visible Light 15h 28m
Length of Day
14h 28m
Waning Crescent, 1% of the Moon is Illuminated
Jun 7
Waning Crescent
Jun 8
New
Jun 16
First Quarter
Jun 23
Full
Jun 30
Last Quarter

Hourly Weather History & Observations

Time (EDT) Temp. Heat Index Dew Point Humidity Pressure Visibility Wind Dir Wind Speed Gust Speed Precip Events Conditions
12:15 AM 67.3 °F - 66.7 °F 98% 29.84 in 7.0 mi SE 5.8 mph - N/A Rain Light Rain
12:35 AM 67.1 °F - 66.6 °F 98% 29.84 in 7.0 mi ESE 4.6 mph - 0.02 in Rain Light Rain
12:55 AM 67.1 °F - 66.6 °F 98% 29.83 in 10.0 mi ESE 4.6 mph - 0.03 in Rain Rain
1:15 AM 67.1 °F - 66.4 °F 98% 29.82 in 7.0 mi Calm Calm - 0.01 in Rain Rain
1:35 AM 67.1 °F - 66.6 °F 98% 29.82 in 7.0 mi East 3.5 mph - 0.02 in Rain Rain
1:55 AM 66.9 °F - 66.4 °F 98% 29.81 in 7.0 mi Calm Calm - 0.04 in Rain Light Rain
2:15 AM 67.1 °F - 66.6 °F 98% 29.80 in 7.0 mi Calm Calm - 0.01 in Rain Light Rain
2:35 AM 66.9 °F - 66.4 °F 98% 29.79 in 7.0 mi Calm Calm - 0.03 in Rain Light Rain
2:55 AM 66.9 °F - 66.6 °F 99% 29.77 in 5.0 mi NNE 3.5 mph - 0.05 in Rain Light Rain
3:15 AM 66.7 °F - 66.4 °F 99% 29.77 in 5.0 mi Calm Calm - 0.02 in Rain Rain
3:35 AM 66.6 °F - 66.2 °F 99% 29.76 in 7.0 mi Calm Calm - 0.04 in Rain Light Rain
3:55 AM 66.6 °F - 66.2 °F 99% 29.75 in 10.0 mi NNE 4.6 mph - 0.05 in   Light Drizzle
4:15 AM 66.6 °F - 66.2 °F 99% 29.74 in 10.0 mi North 3.5 mph - 0.01 in   Overcast
4:35 AM 66.4 °F - 66.0 °F 99% 29.74 in 10.0 mi NNE 4.6 mph - 0.01 in   Mostly Cloudy
4:55 AM 66.2 °F - 65.7 °F 98% 29.73 in 10.0 mi NNE 3.5 mph - 0.01 in   Mostly Cloudy
5:15 AM 66.2 °F - 65.5 °F 98% 29.73 in 10.0 mi North 4.6 mph - N/A   Scattered Clouds
5:35 AM 66.2 °F - 65.5 °F 98% 29.73 in 10.0 mi NNE 4.6 mph - N/A   Scattered Clouds
5:55 AM 66.2 °F - 65.5 °F 98% 29.73 in 10.0 mi NNE 4.6 mph - 0.01 in   Drizzle
6:15 AM 66.4 °F - 65.5 °F 97% 29.73 in 10.0 mi NNE 5.8 mph - N/A Rain Light Rain
6:35 AM 66.2 °F - 65.5 °F 98% 29.72 in 10.0 mi North 4.6 mph - 0.01 in Rain Light Rain
6:55 AM 66.2 °F - 65.7 °F 98% 29.72 in 10.0 mi NNE 4.6 mph - 0.01 in Rain Light Rain
7:15 AM 66.4 °F - 65.7 °F 98% 29.72 in 7.0 mi Calm Calm - N/A Rain Rain
7:35 AM 66.4 °F - 65.8 °F 98% 29.72 in 7.0 mi Calm Calm - 0.01 in Rain Rain
7:55 AM 66.4 °F - 66.2 °F 99% 29.71 in 7.0 mi Calm Calm - 0.02 in Rain Light Rain
8:15 AM 66.9 °F - 66.2 °F 98% 29.71 in 10.0 mi NNW 3.5 mph - 0.01 in Rain Rain
8:35 AM 67.1 °F - 66.4 °F 98% 29.71 in 10.0 mi NNW 3.5 mph - 0.01 in Rain Rain
8:55 AM 67.3 °F - 66.6 °F 98% 29.72 in 10.0 mi Calm Calm - 0.02 in Rain Rain
9:15 AM 67.6 °F - 66.6 °F 96% 29.72 in 10.0 mi Calm Calm - N/A Rain Light Rain
9:35 AM 68.0 °F - 67.1 °F 97% 29.72 in 10.0 mi WNW 6.9 mph - 0.01 in Rain Rain
9:55 AM 68.2 °F - 66.9 °F 96% 29.71 in 10.0 mi NW 5.8 mph - 0.01 in Rain Light Rain
10:15 AM 68.9 °F - 67.3 °F 95% 29.71 in 10.0 mi NW 4.6 mph - 0.01 in Rain Light Rain
10:35 AM 69.8 °F - 68.2 °F 95% 29.71 in 10.0 mi West 6.9 mph - 0.01 in Rain Light Rain
10:55 AM 70.2 °F - 67.8 °F 92% 29.72 in 10.0 mi Calm Calm - 0.01 in   Light Drizzle
11:15 AM 71.2 °F - 68.2 °F 90% 29.72 in 10.0 mi NNW 3.5 mph - N/A   Light Drizzle
11:35 AM 71.8 °F - 68.4 °F 89% 29.72 in 10.0 mi WNW 3.5 mph - N/A   Light Drizzle
11:55 AM 72.5 °F - 67.6 °F 85% 29.73 in 10.0 mi Calm Calm - N/A   Overcast
12:15 PM 72.5 °F - 68.5 °F 87% 29.73 in 10.0 mi SW 4.6 mph - N/A   Overcast
12:35 PM 72.7 °F - 68.4 °F 86% 29.73 in 10.0 mi SSW 5.8 mph - N/A   Mostly Cloudy
12:55 PM 73.0 °F - 68.7 °F 86% 29.74 in 10.0 mi South 4.6 mph - N/A   Mostly Cloudy
1:15 PM 73.0 °F - 68.9 °F 87% 29.74 in 10.0 mi WSW 3.5 mph - N/A   Mostly Cloudy
1:35 PM 73.6 °F - 69.3 °F 86% 29.73 in 10.0 mi Calm Calm - N/A   Mostly Cloudy
1:55 PM 73.8 °F - 69.3 °F 86% 29.73 in 10.0 mi SW 8.1 mph - N/A   Mostly Cloudy
2:15 PM 75.4 °F - 69.4 °F 82% 29.73 in 10.0 mi WSW 3.5 mph - N/A   Mostly Cloudy
2:35 PM 77.4 °F - 70.9 °F 80% 29.72 in 10.0 mi West 5.8 mph - N/A   Mostly Cloudy
2:55 PM 77.4 °F - 69.4 °F 76% 29.72 in 10.0 mi West 3.5 mph - N/A   Overcast
3:15 PM 79.0 °F - 69.6 °F 73% 29.72 in 10.0 mi South 3.5 mph - N/A   Mostly Cloudy
3:35 PM 79.7 °F - 70.2 °F 73% 29.71 in 10.0 mi Calm Calm - N/A   Mostly Cloudy
3:55 PM 81.9 °F 85.4 °F 69.4 °F 66% 29.71 in 10.0 mi Calm Calm - N/A   Mostly Cloudy
4:15 PM 81.9 °F 85.4 °F 69.6 °F 66% 29.70 in 10.0 mi SSW 3.5 mph - N/A   Scattered Clouds
4:35 PM 81.7 °F 84.5 °F 67.8 °F 63% 29.70 in 10.0 mi Calm Calm - N/A   Scattered Clouds
4:55 PM 82.6 °F 85.3 °F 67.6 °F 60% 29.71 in 10.0 mi SW 3.5 mph - N/A   Scattered Clouds
5:15 PM 80.6 °F 83.1 °F 67.5 °F 64% 29.72 in 10.0 mi WSW 4.6 mph - N/A   Mostly Cloudy
5:35 PM 78.6 °F - 66.4 °F 66% 29.72 in 10.0 mi WSW 4.6 mph - N/A   Scattered Clouds
5:55 PM 77.5 °F - 67.5 °F 71% 29.73 in 10.0 mi SW 3.5 mph - N/A   Scattered Clouds
6:15 PM 78.3 °F - 68.4 °F 71% 29.74 in 10.0 mi NE 4.6 mph - N/A   Scattered Clouds
6:35 PM 76.1 °F - 66.2 °F 71% 29.75 in 10.0 mi Calm Calm - N/A   Mostly Cloudy
6:55 PM 75.4 °F - 66.7 °F 74% 29.76 in 10.0 mi SSE 3.5 mph - N/A   Scattered Clouds
7:15 PM 74.5 °F - 67.5 °F 79% 29.77 in 10.0 mi SSE 4.6 mph - N/A   Scattered Clouds
7:35 PM 73.0 °F - 66.0 °F 79% 29.78 in 10.0 mi South 8.1 mph - N/A   Mostly Cloudy
7:55 PM 68.5 °F - 65.7 °F 90% 29.80 in 1.8 mi SSW 9.2 mph - 0.06 in Rain Heavy Rain
8:15 PM 67.1 °F - 64.4 °F 91% 29.81 in 3.0 mi NNE 8.1 mph - 0.07 in Rain Rain
8:35 PM 68.0 °F - 65.1 °F 90% 29.82 in 3.0 mi ESE 5.8 mph - 0.13 in Rain Heavy Rain
8:55 PM 67.5 °F - 65.3 °F 93% 29.82 in 10.0 mi SW 5.8 mph - 0.17 in Rain Light Rain
9:15 PM 66.7 °F - 65.3 °F 95% 29.84 in 10.0 mi SSW 8.1 mph - 0.02 in Rain Light Rain
9:35 PM 66.2 °F - 65.3 °F 97% 29.85 in 10.0 mi Calm Calm - 0.04 in Rain Light Rain
9:55 PM 66.4 °F - 65.8 °F 98% 29.85 in 5.0 mi Calm Calm - 0.06 in Rain Light Rain
10:15 PM 66.2 °F - 65.7 °F 98% 29.86 in 7.0 mi ESE 5.8 mph - 0.01 in Rain Light Rain
10:35 PM 66.2 °F - 65.7 °F 98% 29.85 in 5.0 mi Calm Calm - 0.03 in   Mostly Cloudy
10:55 PM 66.0 °F - 65.5 °F 98% 29.86 in 7.0 mi Calm Calm - 0.03 in Rain Light Rain
11:15 PM 65.8 °F - 65.3 °F 98% 29.86 in 10.0 mi SSW 5.8 mph - 0.01 in   Overcast
11:35 PM 65.8 °F - 65.5 °F 99% 29.86 in 7.0 mi Calm Calm - 0.02 in   Overcast
11:55 PM 65.8 °F - 65.3 °F 98% 29.87 in 10.0 mi SSW 4.6 mph - 0.02 in   Overcast